[[{"header":{"parameterUnit":"m.s-1","parameterCategory":1,"la1":30.2991,"la2":30.254,"lo1":-89.0895,"lo2":-89.0444,"dy":0.0017,"dx":0.0017,"nx":28,"ny":28,"refTime":"2025-04-02T03:00:00:Z","depth":0,"parameterNumber":2,"parameterNumberName":"U-component_of_WINDS"},"data":[0,0,0,0,0,0,0,0,0,0,0,0,0,0,0,0,0,0,0,0,0,0,0,0,0,0,0,0,0,0,0,0,0,0,0,0,0,0,0,0,0,0,0,0,0,0,0,0,0,0,0,0,0,0,0,0,0,0,-4.6177,-4.6178,0,-4.6284,-4.6285,-4.6286,-4.6303,-4.6302,-4.6301,-4.63,-4.6407,-4.641,-4.6414,0,0,0,0,0,0,0,0,0,0,0,0,0,-4.5985,-4.5988,-4.6177,-4.6178,-4.6179,-4.6284,-4.6285,-4.6287,-4.6303,-4.6302,-4.6301,-4.63,-4.6405,-4.641,-4.6414,0,0,0,0,0,0,0,0,0,0,0,0,0,-4.6077,-4.5989,-4.6176,-4.62,-4.6204,-4.6283,-4.6285,-4.6287,-4.6303,-4.6302,-4.63,-4.6299,-4.6404,-4.6409,-4.6415,-4.6477,0,0,-4.6432,-4.6434,0,0,0,0,0,0,0,0,-4.6072,-4.6084,-4.6195,-4.6199,-4.6203,-4.6279,-4.6256,-4.6351,-4.6304,-4.6265,-4.63,-4.6298,-4.6365,-4.6374,-4.6397,-4.6482,-4.6487,-4.6432,-4.6436,-4.6438,-4.644,0,0,0,0,0,0,0,-4.6066,-4.608,-4.6219,-4.6197,-4.6201,-4.6205,-4.6217,-4.6274,-4.6322,-4.6269,-4.627,-4.6283,-4.6367,-4.6391,-4.6399,-4.6488,-4.6432,-4.6437,-4.644,-4.6443,-4.6631,-4.6632,0,0,0,0,0,0,-4.6055,-4.6074,-4.6216,-4.6222,-4.6133,-4.621,-4.6223,-4.6256,-4.6321,-4.633,-4.6284,-4.6283,-4.6382,-4.6393,-4.6403,-4.648,-4.6438,-4.6443,-4.6446,-4.6629,-4.6631,-4.6633,0,0,0,0,0,0,-4.6051,-4.6068,-4.6211,-4.6149,-4.6167,-4.6214,-4.6251,-4.6258,-4.6283,-4.6333,-4.6341,-4.63,-4.6382,-4.6395,-4.6459,-4.6484,-4.6446,-4.6451,-4.6627,-4.663,-4.6632,-4.6634,0,0,0,0,0,0,-4.6045,-4.6066,-4.6091,-4.6149,-4.6171,-4.6266,-4.6253,-4.6262,-4.6293,-4.6293,-4.635,-4.6358,-4.6382,-4.6451,-4.6464,-4.6491,-4.6455,-4.6625,-4.6628,-4.6631,-4.6632,-4.6636,-4.664,0,0,0,0,0,-4.6038,-4.6086,-4.6092,-4.6109,-4.6203,-4.6267,-4.6279,-4.6306,-4.6295,-4.632,-4.6352,-4.6357,-4.648,-4.6457,-4.6473,-4.6501,-4.6623,-4.6627,-4.6631,-4.663,-4.6635,-4.664,0,0,0,0,0,0,-4.6028,-4.6094,-4.6101,-4.617,-4.6213,-4.627,-4.6302,-4.6311,-4.6357,-4.6355,-4.6386,-4.6398,-4.646,-4.6487,-4.6461,-4.6565,-4.655,-4.6557,-4.6544,-4.655,-4.6554,-4.6545,-4.646,0,0,0,0,0,-4.6034,-4.6082,-4.6137,-4.6192,-4.6214,-4.6254,-4.6283,-4.63,-4.6346,-4.6364,-4.64,-4.6444,-4.6492,-4.6523,-4.657,-4.6637,-4.6649,-4.6664,-4.6668,-4.6672,-4.6676,-4.6713,-4.672,-4.6645,-4.6645,-4.6645,0,0,-4.6046,-4.6089,-4.6117,-4.6191,-4.6227,-4.6275,-4.6269,-4.632,-4.6356,-4.6371,-4.6433,-4.6462,-4.6512,-4.6578,-4.6608,-4.6602,-4.67,-4.6676,-4.6678,-4.6682,-4.6718,-4.6725,-4.6731,-4.6647,-4.6647,-4.6647,0,0,-4.6092,-4.613,-4.618,-4.6216,-4.627,-4.6297,-4.6309,-4.6365,-4.6385,-4.6449,-4.6461,-4.6504,-4.6587,-4.6622,-4.665,-4.6712,-4.6718,-4.6727,-4.6747,-4.6782,-4.6788,-4.6793,-4.6814,-4.6821,-4.6732,-4.6732,-4.6732,0,-4.61,-4.6174,-4.6204,-4.6254,-4.6286,-4.6305,-4.6355,-4.6388,-4.6454,-4.6476,-4.6469,-4.6573,-4.6609,-4.6682,-4.6697,-4.672,-4.6734,-4.6719,-4.6785,-4.6791,-4.6796,-4.6816,-4.6823,-4.6732,-4.6732,-4.6732,-4.6732,0,-4.618,-4.6231,-4.6264,-4.6329,-4.6365,-4.6415,-4.6452,-4.6485,-4.65,-4.6527,-4.6591,-4.6635,-4.6691,-4.671,-4.6724,-4.6786,-4.678,-4.6779,-4.6764,-4.6803,-4.6822,-4.683,-4.6733,-4.6733,-4.6733,-4.6733,0,0,-4.622,-4.6302,-4.6314,-4.6343,-4.6405,-4.6445,-4.6496,-4.6552,-4.6579,-4.6625,-4.6667,-4.6738,-4.6737,-4.677,-4.6789,-4.682,-4.6864,-4.6815,-4.6816,-4.6821,-4.6933,-4.6932,-4.694,-4.687,-4.6872,-4.6873,-4.6928,0,-4.6272,-4.6364,-4.6393,-4.6469,-4.6516,-4.6535,-4.6579,-4.6622,-4.6649,-4.6692,-4.6723,-4.6772,-4.6768,-4.6788,-4.682,-4.6852,-4.6887,-4.6849,-4.6908,-4.691,-4.6892,-4.6951,-4.695,-4.7,-4.6936,-4.6937,-4.6938,0,-4.6344,-4.6392,-4.6473,-4.653,-4.655,-4.659,-4.6643,-4.6685,-4.6734,-4.6752,-4.6789,-4.6806,-4.6859,-4.6844,-4.6917,-4.689,-4.6917,-4.6936,-4.6939,-4.6943,-4.6924,-4.6955,-4.7017,-4.7023,-4.6951,-4.695,-4.6949,0,-4.6363,-4.6448,-4.6508,-4.6533,-4.66,-4.6627,-4.6657,-4.6704,-4.6736,-4.6783,-4.6804,-4.6857,-4.6885,-4.6925,-4.6955,-4.6941,-4.7025,-4.7012,-4.704,-4.7039,-4.7054,-4.7052,-4.7119,-4.7075,-4.7075,-4.7075,-4.7075,0,-4.6417,-4.6465,-4.6517,-4.6553,-4.6608,-4.6641,-4.6694,-4.6725,-4.6767,-4.6809,-4.6829,-4.6868,-4.6906,-4.695,-4.6974,-4.703,-4.7044,-4.7059,-4.7064,-4.7055,-4.7053,-4.7071,-4.7068,-4.7077,-4.7077,-4.7076,-4.7076,0,-4.6446,-4.6483,-4.6548,-4.6608,-4.6624,-4.6661,-4.6712,-4.6747,-4.6777,-4.683,-4.6844,-4.6889,-4.6942,-4.6977,-4.7044,-4.706,-4.7121,-4.7126,-4.7104,-4.7106,-4.7131,-4.7128,-4.721,-4.7222,-4.7172,-4.7172,-4.7173,0,-4.6476,-4.6514,-4.6578,-4.6608,-4.6637,-4.6686,-4.6719,-4.6753,-4.6787,-4.6846,-4.6874,-4.6928,-4.6973,-4.7057,-4.7095,-4.7146,-4.7152,-4.7178,-4.716,-4.715,-4.715,-4.7147,-4.715,-4.7179,-4.718,-4.718,-4.718,0,-4.6526,-4.6543,-4.659,-4.6644,-4.6683,-4.6727,-4.6771,-4.6794,-4.6836,-4.6873,-4.6928,-4.6963,-4.7032,-4.7085,-4.7141,-4.717,-4.7182,-4.7186,-4.7195,-4.7185,-4.717,-4.7177,-4.711,-4.7183,-4.7183,-4.7183,-4.7183,-4.7183,-4.6556,-4.659,-4.664,-4.6692,-4.6729,-4.677,-4.6806,-4.6841,-4.6887,-4.6946,-4.6965,-4.7021,-4.7069,-4.7145,-4.7176,-4.722,-4.7217,-4.723,-4.7233,-4.7235,-4.7234,-4.7165,-4.723,-4.723,-4.723,-4.723,-4.723,0,-4.6605,-4.6638,-4.6686,-4.6747,-4.6788,-4.6798,-4.6847,-4.688,-4.693,-4.6975,-4.7019,-4.7082,-4.7134,-4.7177,-4.7231,-4.7258,-4.7265,-4.727,-4.7268,-4.7274,-4.7235,-4.7221,-4.7264,-4.7264,-4.7264,-4.7264,-4.7264,-4.7264,-4.6635,-4.6693,-4.6716,-4.6793,-4.6826,-4.6882,-4.6909,-4.6947,-4.6983,-4.7052,-4.7095,-4.7124,-4.7168,-4.7225,-4.7273,-4.7285,-4.7303,-4.7307,-4.7319,-4.7281,-4.7277,-4.7273,-4.726,-4.7311,-4.7311,-4.7355,-4.7355,-4.7355]},{"header":{"parameterUnit":"m.s-1","parameterCategory":1,"la1":30.2991,"la2":30.254,"lo1":-89.0895,"lo2":-89.0444,"dy":0.0017,"dx":0.0017,"nx":28,"ny":28,"refTime":"2025-04-02T03:00:00:Z","depth":0,"parameterNumber":3,"parameterNumberName":"V-component_of_WINDS"},"data":[0,0,0,0,0,0,0,0,0,0,0,0,0,0,0,0,0,0,0,0,0,0,0,0,0,0,0,0,0,0,0,0,0,0,0,0,0,0,0,0,0,0,0,0,0,0,0,0,0,0,0,0,0,0,0,0,0,0,6.3438,6.3439,0,6.35,6.3501,6.3502,6.3476,6.3475,6.3474,6.3472,6.3531,6.3534,6.3537,0,0,0,0,0,0,0,0,0,0,0,0,0,6.3295,6.3298,6.3438,6.3439,6.344,6.35,6.3501,6.3502,6.3477,6.3475,6.3473,6.3471,6.353,6.3534,6.3537,0,0,0,0,0,0,0,0,0,0,0,0,0,6.3357,6.3299,6.3438,6.3435,6.3435,6.35,6.3501,6.3502,6.3477,6.3475,6.3473,6.3471,6.3529,6.3533,6.3538,6.3608,0,0,6.3551,6.3553,0,0,0,0,0,0,0,0,6.3354,6.3363,6.3434,6.3435,6.3435,6.3479,6.3472,6.3538,6.3478,6.3461,6.3472,6.347,6.3515,6.352,6.3537,6.3611,6.3614,6.3551,6.3554,6.3556,6.3557,0,0,0,0,0,0,0,6.335,6.336,6.3463,6.3435,6.3436,6.3429,6.3436,6.3485,6.3499,6.3462,6.3461,6.3469,6.3515,6.3533,6.3538,6.3615,6.3551,6.3555,6.3558,6.356,6.3753,6.3756,0,0,0,0,0,0,6.3346,6.3356,6.3461,6.3465,6.3389,6.3434,6.3441,6.3467,6.3499,6.3502,6.347,6.3467,6.3526,6.3533,6.354,6.3627,6.3556,6.356,6.3563,6.3751,6.3754,6.3757,0,0,0,0,0,0,6.3343,6.3355,6.3458,6.341,6.3423,6.3438,6.3468,6.3469,6.3487,6.3505,6.3507,6.3486,6.3525,6.3534,6.3593,6.3629,6.3562,6.3566,6.3748,6.3752,6.3755,6.3801,0,0,0,0,0,0,6.3339,6.3354,6.3382,6.3411,6.3426,6.3511,6.347,6.3472,6.3495,6.3492,6.352,6.3523,6.3524,6.3586,6.3597,6.3634,6.3569,6.3745,6.375,6.3754,6.3796,6.3806,6.3814,0,0,0,0,0,6.3334,6.339,6.3383,6.3396,6.346,6.3513,6.3521,6.3522,6.3498,6.3526,6.3538,6.3522,6.3623,6.3593,6.3604,6.3643,6.3743,6.3748,6.3754,6.3792,6.3804,6.3814,0,0,0,0,0,0,6.3362,6.3394,6.3386,6.3455,6.3482,6.3509,6.3543,6.3534,6.3567,6.3562,6.3561,6.3568,6.3629,6.3642,6.3607,6.3715,6.3679,6.3687,6.3704,6.3716,6.3724,6.372,6.3573,0,0,0,0,0,6.3377,6.3418,6.3443,6.3501,6.3515,6.3527,6.355,6.3549,6.3576,6.3587,6.3603,6.3629,6.3667,6.3692,6.3727,6.3798,6.3805,6.3831,6.384,6.3847,6.3854,6.3895,6.3907,6.3775,6.3775,6.3775,0,0,6.3407,6.3429,6.3455,6.3507,6.3528,6.3571,6.3537,6.3582,6.3614,6.3593,6.3651,6.3664,6.3693,6.3759,6.3789,6.3771,6.3892,6.3854,6.386,6.3863,6.3902,6.3914,6.3926,6.3779,6.3778,6.3778,0,0,6.3484,6.3504,6.3556,6.3579,6.3612,6.362,6.3632,6.3662,6.367,6.3729,6.3715,6.3752,6.3817,6.3839,6.3859,6.3948,6.3935,6.3959,6.4005,6.4045,6.4056,6.4065,6.4098,6.411,6.3966,6.3966,6.3966,0,6.3516,6.3581,6.3583,6.3631,6.3655,6.3642,6.3694,6.3715,6.3758,6.3774,6.3755,6.3838,6.3856,6.3929,6.3951,6.3967,6.3981,6.3956,6.4054,6.4064,6.4072,6.4104,6.4116,6.3969,6.3969,6.3969,6.3968,0,6.362,6.3665,6.3703,6.3748,6.3776,6.3825,6.3836,6.3864,6.3861,6.3871,6.3932,6.3954,6.3995,6.4012,6.4008,6.4085,6.4073,6.4054,6.4018,6.4088,6.4118,6.413,6.3973,6.3972,6.3972,6.3971,0,0,6.3715,6.3763,6.3777,6.3798,6.3835,6.3869,6.3919,6.3962,6.3987,6.4017,6.4059,6.4116,6.41,6.4122,6.4121,6.4156,6.4228,6.4133,6.4134,6.4151,6.4316,6.4331,6.4345,6.422,6.4222,6.4224,6.4314,0,6.3796,6.3885,6.3891,6.3971,6.4014,6.4003,6.4047,6.4074,6.4086,6.4123,6.4135,6.4177,6.415,6.4165,6.4199,6.4212,6.4261,6.4205,6.4259,6.4261,6.4254,6.436,6.4376,6.4459,6.4325,6.4327,6.4329,0,6.3901,6.3938,6.4025,6.4059,6.4077,6.4116,6.4157,6.4193,6.4224,6.423,6.4257,6.4252,6.4304,6.4267,6.4338,6.43,6.4322,6.4333,6.4336,6.4341,6.43,6.437,6.4486,6.4499,6.4347,6.4345,6.4344,0,6.3964,6.4035,6.4097,6.4115,6.4156,6.4184,6.4202,6.4231,6.4258,6.4293,6.431,6.435,6.4372,6.4403,6.441,6.4382,6.4482,6.4444,6.4489,6.4489,6.451,6.4509,6.4633,6.4523,6.4523,6.4522,6.4522,0,6.4055,6.4108,6.4126,6.4164,6.4224,6.423,6.4289,6.4305,6.4331,6.4372,6.4364,6.4402,6.4407,6.4447,6.4452,6.4511,6.4521,6.4527,6.4528,6.4529,6.4528,6.4544,6.4538,6.4526,6.4525,6.4524,6.4524,0,6.4135,6.4149,6.4216,6.425,6.426,6.4303,6.4332,6.4369,6.438,6.4432,6.4444,6.4462,6.4509,6.4518,6.4572,6.4575,6.4647,6.4641,6.4637,6.4637,6.4681,6.4678,6.482,6.484,6.4716,6.4717,6.4718,0,6.4192,6.4234,6.4274,6.4302,6.4322,6.4366,6.4395,6.4402,6.4431,6.4472,6.4503,6.455,6.4587,6.4661,6.4679,6.4721,6.4717,6.4764,6.4722,6.4723,6.4719,6.4717,6.4722,6.4772,6.4773,6.4774,6.4775,0,6.4293,6.4299,6.4341,6.4386,6.442,6.4455,6.4488,6.4511,6.4523,6.4556,6.4605,6.4635,6.4692,6.4738,6.478,6.4798,6.4789,6.4788,6.4801,6.4802,6.4799,6.4803,6.466,6.4785,6.4784,6.4783,6.4782,6.4782,6.4365,6.4403,6.4438,6.4485,6.4512,6.4544,6.4581,6.4599,6.464,6.4689,6.469,6.4744,6.4776,6.4833,6.4853,6.4895,6.488,6.4898,6.4903,6.4907,6.4913,6.4792,6.4902,6.4902,6.4902,6.4902,6.4901,0,6.4467,6.449,6.4534,6.4583,6.462,6.4611,6.4648,6.4679,6.4728,6.4759,6.4797,6.4854,6.49,6.4922,6.4967,6.4996,6.4993,6.5008,6.5006,6.5011,6.4922,6.4908,6.501,6.501,6.501,6.501,6.501,6.5009,6.4525,6.4589,6.46,6.4677,6.4699,6.4754,6.4776,6.4806,6.4832,6.4897,6.4936,6.495,6.4979,6.5026,6.5068,6.5073,6.509,6.5107,6.5111,6.5028,6.5017,6.5006,6.4993,6.5111,6.5111,6.5196,6.5197,6.5197]}]]